[[{"header":{"parameterUnit":"m.s-1","parameterCategory":1,"la1":30.2991,"la2":30.254,"lo1":-89.0895,"lo2":-89.0444,"dy":0.0017,"dx":0.0017,"nx":28,"ny":28,"refTime":"2024-07-07T03:00:00:Z","depth":0,"parameterNumber":2,"parameterNumberName":"U-component_of_WINDS"},"data":[0,0,0,0,0,0,0,0,0,0,0,0,0,0,0,0,0,0,0,0,0,0,0,0,0,0,0,0,0,0,0,0,0,0,0,0,0,0,0,0,0,0,0,0,0,0,0,0,0,0,0,0,0,0,0,0,0,0,-4.024,-4.024,0,-4.0165,-4.0164,-4.0163,-4.0089,-4.0088,-4.0087,-4.0086,-4.0005,-4.0004,-4.0003,0,0,0,0,0,0,0,0,0,0,0,0,0,-4.0318,-4.0317,-4.024,-4.024,-4.0239,-4.0165,-4.0164,-4.0163,-4.0089,-4.0088,-4.0087,-4.0086,-4.0006,-4.0004,-4.0003,0,0,0,0,0,0,0,0,0,0,0,0,0,-4.0268,-4.0317,-4.0241,-4.0193,-4.0188,-4.0166,-4.0164,-4.0163,-4.009,-4.0088,-4.0087,-4.0085,-4.0006,-4.0004,-4.0002,-4.002,0,0,-3.9997,-3.9996,0,0,0,0,0,0,0,0,-4.0271,-4.0265,-4.0201,-4.0196,-4.0191,-4.0135,-4.0162,-4.0115,-4.009,-4.0127,-4.0086,-4.0085,-4.0049,-4.0044,-4.0033,-4.0016,-4.0012,-3.9996,-3.9995,-3.9994,-3.9994,0,0,0,0,0,0,0,-4.0274,-4.0268,-4.021,-4.02,-4.0194,-4.0175,-4.0166,-4.0153,-4.0097,-4.0123,-4.0118,-4.011,-4.0046,-4.0035,-4.003,-4.0011,-3.9996,-3.9995,-3.9994,-3.9993,-4.0006,-4.0007,0,0,0,0,0,0,-4.0285,-4.0271,-4.0213,-4.0208,-4.0228,-4.0174,-4.0165,-4.0154,-4.0097,-4.0087,-4.0112,-4.0107,-4.0039,-4.0032,-4.0027,-4.0043,-3.9994,-3.9993,-3.9992,-4.0004,-4.0006,-4.0008,0,0,0,0,0,0,-4.0287,-4.0281,-4.0216,-4.0238,-4.0229,-4.0175,-4.0164,-4.0154,-4.0142,-4.0088,-4.0077,-4.011,-4.0037,-4.003,-4.0023,-4.0039,-3.9992,-3.999,-4.0003,-4.0005,-4.0007,-4.0076,0,0,0,0,0,0,-4.029,-4.0282,-4.0288,-4.0239,-4.0228,-4.0213,-4.0165,-4.0153,-4.0139,-4.0133,-4.0084,-4.0074,-4.0035,-4.0026,-4.0021,-4.0036,-3.9989,-4.0001,-4.0004,-4.0006,-4.0072,-4.008,-4.0088,0,0,0,0,0,-4.0293,-4.031,-4.0289,-4.0282,-4.0235,-4.0214,-4.0208,-4.0164,-4.0141,-4.0147,-4.0112,-4.0076,-4.0039,-4.0026,-4.0019,-4.0034,-3.9999,-4.0003,-4.0006,-4.0068,-4.0079,-4.0087,0,0,0,0,0,0,-4.036,-4.0302,-4.0278,-4.028,-4.0253,-4.0202,-4.0207,-4.0176,-4.0154,-4.0148,-4.0094,-4.0084,-4.0083,-4.0058,-4.0044,-4.0049,-4.0014,-4.0017,-4.0064,-4.0073,-4.0081,-4.0085,-3.9987,0,0,0,0,0,-4.0376,-4.0365,-4.0315,-4.0321,-4.0309,-4.0261,-4.0251,-4.022,-4.0189,-4.0176,-4.0141,-4.0112,-4.0094,-4.0083,-4.0063,-4.007,-4.0057,-4.0077,-4.0085,-4.0091,-4.0093,-4.0094,-4.0102,-4.0019,-4.0019,-4.0018,0,0,-4.0406,-4.0374,-4.037,-4.0334,-4.0309,-4.0299,-4.0251,-4.0242,-4.0234,-4.0174,-4.0165,-4.014,-4.0103,-4.0103,-4.0101,-4.0082,-4.0114,-4.0096,-4.0101,-4.0099,-4.0099,-4.0107,-4.0114,-4.0021,-4.002,-4.002,0,0,-4.0457,-4.0432,-4.0434,-4.0411,-4.0375,-4.0344,-4.0345,-4.0299,-4.028,-4.0271,-4.0227,-4.0216,-4.0186,-4.0162,-4.0146,-4.0192,-4.0157,-4.0187,-4.0226,-4.0228,-4.0235,-4.024,-4.0255,-4.0261,-4.0189,-4.0189,-4.0189,0,-4.0498,-4.0482,-4.0439,-4.0433,-4.0418,-4.0367,-4.0369,-4.0348,-4.0308,-4.0298,-4.0279,-4.0241,-4.0213,-4.0207,-4.0219,-4.0208,-4.0206,-4.019,-4.0238,-4.0243,-4.0247,-4.0261,-4.0267,-4.0193,-4.0193,-4.0192,-4.0192,0,-4.0535,-4.0525,-4.0531,-4.0495,-4.0481,-4.0479,-4.0435,-4.0427,-4.0399,-4.0369,-4.0361,-4.0326,-4.0299,-4.0296,-4.0267,-4.0286,-4.0275,-4.0248,-4.0212,-4.026,-4.0271,-4.0276,-4.0198,-4.0197,-4.0196,-4.0195,0,0,-4.0621,-4.0564,-4.0567,-4.055,-4.0509,-4.0499,-4.0496,-4.0471,-4.0464,-4.0439,-4.0434,-4.0412,-4.0387,-4.0369,-4.0337,-4.034,-4.0377,-4.0312,-4.031,-4.0323,-4.0395,-4.0414,-4.0421,-4.0356,-4.0357,-4.0357,-4.0397,0,-4.0663,-4.0653,-4.0616,-4.0617,-4.0607,-4.056,-4.0557,-4.0531,-4.0505,-4.0492,-4.0462,-4.0447,-4.0415,-4.0404,-4.0405,-4.0373,-4.039,-4.037,-4.0348,-4.0348,-4.0356,-4.0427,-4.0447,-4.0486,-4.0402,-4.0402,-4.0403,0,-4.0709,-4.0688,-4.069,-4.065,-4.0644,-4.0642,-4.0617,-4.0606,-4.0576,-4.0556,-4.0538,-4.0504,-4.0498,-4.0467,-4.0456,-4.0443,-4.0433,-4.0416,-4.0417,-4.041,-4.0376,-4.042,-4.0497,-4.0502,-4.041,-4.041,-4.0409,0,-4.077,-4.0743,-4.074,-4.0728,-4.0682,-4.0681,-4.0662,-4.0631,-4.0619,-4.0598,-4.0589,-4.0567,-4.0554,-4.0537,-4.0498,-4.048,-4.0492,-4.0458,-4.0474,-4.0475,-4.0476,-4.0476,-4.055,-4.0474,-4.0474,-4.0474,-4.0474,0,-4.0818,-4.082,-4.0767,-4.0765,-4.0766,-4.0724,-4.0726,-4.0702,-4.0676,-4.0668,-4.0627,-4.062,-4.057,-4.0558,-4.0528,-4.0523,-4.0518,-4.0502,-4.0493,-4.0504,-4.0506,-4.0494,-4.0489,-4.0476,-4.0475,-4.0475,-4.0475,0,-4.0885,-4.0849,-4.0843,-4.0802,-4.0791,-4.0794,-4.0758,-4.0754,-4.0727,-4.0718,-4.0713,-4.067,-4.0653,-4.0614,-4.0587,-4.0567,-4.0569,-4.0555,-4.0579,-4.0574,-4.0591,-4.059,-4.0658,-4.0664,-4.0588,-4.0589,-4.0589,0,-4.0916,-4.0917,-4.0877,-4.0869,-4.0852,-4.0841,-4.0829,-4.0789,-4.0778,-4.0746,-4.0746,-4.0727,-4.0709,-4.0685,-4.0651,-4.063,-4.0614,-4.0639,-4.061,-4.0621,-4.0612,-4.0611,-4.0611,-4.0645,-4.0646,-4.0647,-4.0647,0,-4.0976,-4.096,-4.0945,-4.0925,-4.0913,-4.0895,-4.0874,-4.087,-4.0824,-4.0815,-4.0799,-4.0785,-4.0759,-4.074,-4.0715,-4.0694,-4.0663,-4.0658,-4.066,-4.0669,-4.0682,-4.0674,-4.0594,-4.0655,-4.0654,-4.0654,-4.0653,-4.0653,-4.1025,-4.1024,-4.0995,-4.0981,-4.0962,-4.0944,-4.0939,-4.0912,-4.0899,-4.0875,-4.0852,-4.0838,-4.081,-4.0773,-4.0755,-4.0743,-4.0727,-4.073,-4.0731,-4.0732,-4.0736,-4.0688,-4.0738,-4.0738,-4.0738,-4.0738,-4.0738,0,-4.1081,-4.1062,-4.1049,-4.1022,-4.1011,-4.0986,-4.0963,-4.0954,-4.0943,-4.092,-4.0905,-4.0887,-4.0869,-4.0835,-4.0814,-4.0811,-4.0796,-4.0807,-4.0805,-4.0801,-4.0752,-4.0752,-4.0819,-4.0819,-4.0819,-4.0819,-4.0819,-4.0819,-4.1109,-4.1105,-4.1086,-4.1073,-4.1053,-4.104,-4.1029,-4.1012,-4.0994,-4.0976,-4.0962,-4.0941,-4.0913,-4.089,-4.0873,-4.0864,-4.0857,-4.0872,-4.0857,-4.0812,-4.0804,-4.0797,-4.0796,-4.0871,-4.0871,-4.0906,-4.0907,-4.0907]},{"header":{"parameterUnit":"m.s-1","parameterCategory":1,"la1":30.2991,"la2":30.254,"lo1":-89.0895,"lo2":-89.0444,"dy":0.0017,"dx":0.0017,"nx":28,"ny":28,"refTime":"2024-07-07T03:00:00:Z","depth":0,"parameterNumber":3,"parameterNumberName":"V-component_of_WINDS"},"data":[0,0,0,0,0,0,0,0,0,0,0,0,0,0,0,0,0,0,0,0,0,0,0,0,0,0,0,0,0,0,0,0,0,0,0,0,0,0,0,0,0,0,0,0,0,0,0,0,0,0,0,0,0,0,0,0,0,0,5.24,5.2399,0,5.2298,5.2297,5.2296,5.2209,5.2208,5.2207,5.2207,5.2096,5.2094,5.2092,0,0,0,0,0,0,0,0,0,0,0,0,0,5.2516,5.2514,5.2401,5.2399,5.2398,5.2299,5.2297,5.2296,5.221,5.2208,5.2207,5.2206,5.2097,5.2095,5.2092,0,0,0,0,0,0,0,0,0,0,0,0,0,5.2445,5.2514,5.2401,5.2343,5.2337,5.2299,5.2297,5.2295,5.221,5.2208,5.2207,5.2206,5.2098,5.2095,5.2092,5.2101,0,0,5.2082,5.2081,0,0,0,0,0,0,0,0,5.2449,5.2441,5.2353,5.2347,5.234,5.2265,5.2297,5.223,5.221,5.2258,5.2207,5.2205,5.2153,5.2146,5.2129,5.2096,5.2091,5.2082,5.208,5.2079,5.2078,0,0,0,0,0,0,0,5.2454,5.2445,5.236,5.2352,5.2344,5.2321,5.2309,5.2284,5.2214,5.2254,5.2247,5.2237,5.2149,5.2132,5.2126,5.2089,5.2082,5.2079,5.2077,5.2076,5.2058,5.2059,0,0,0,0,0,0,5.2469,5.2449,5.2363,5.2357,5.2392,5.232,5.2307,5.2291,5.2215,5.2202,5.2238,5.2233,5.2138,5.213,5.2122,5.2127,5.2079,5.2076,5.2074,5.2056,5.2058,5.2059,0,0,0,0,0,0,5.2471,5.2462,5.2367,5.2401,5.2388,5.2319,5.2302,5.2289,5.2272,5.2203,5.2189,5.2234,5.2137,5.2126,5.2107,5.2122,5.2075,5.2072,5.2055,5.2057,5.2059,5.2139,0,0,0,0,0,0,5.2475,5.2463,5.2467,5.2402,5.2386,5.2356,5.2303,5.2288,5.2268,5.226,5.2195,5.2183,5.2135,5.2112,5.2104,5.2117,5.2069,5.2053,5.2056,5.2058,5.2135,5.2143,5.2151,0,0,0,0,0,5.248,5.2493,5.2468,5.2458,5.239,5.2357,5.2348,5.2294,5.227,5.2272,5.2227,5.2185,5.2122,5.2111,5.2101,5.2114,5.2052,5.2055,5.2058,5.2131,5.2142,5.2151,0,0,0,0,0,0,5.2559,5.2483,5.2455,5.2447,5.241,5.2343,5.2344,5.2307,5.2274,5.2268,5.2201,5.2187,5.2175,5.2142,5.2131,5.2118,5.2081,5.2083,5.214,5.215,5.2158,5.2166,5.2067,0,0,0,0,0,5.2576,5.2558,5.2491,5.2491,5.2474,5.2413,5.2396,5.2359,5.2316,5.2299,5.2253,5.2211,5.2182,5.2164,5.2133,5.213,5.2114,5.2133,5.2142,5.2149,5.215,5.2146,5.2154,5.2069,5.2069,5.2069,0,0,5.261,5.2566,5.2558,5.2506,5.2472,5.2453,5.24,5.2381,5.2366,5.2295,5.2275,5.224,5.2189,5.2178,5.2171,5.215,5.217,5.2153,5.2159,5.2156,5.215,5.2158,5.2165,5.2072,5.2071,5.2071,0,0,5.2663,5.2628,5.2625,5.2593,5.2543,5.2502,5.2502,5.244,5.2415,5.2394,5.2341,5.2321,5.2272,5.2238,5.2215,5.2256,5.2216,5.2248,5.2291,5.2287,5.2294,5.2299,5.2314,5.232,5.225,5.225,5.225,0,5.2711,5.2682,5.2627,5.2613,5.2591,5.2528,5.2523,5.2494,5.2436,5.2422,5.24,5.2339,5.23,5.228,5.2291,5.2274,5.227,5.2255,5.2298,5.2302,5.2307,5.232,5.2325,5.2254,5.2254,5.2253,5.2253,0,5.2744,5.2724,5.2727,5.2675,5.2654,5.2644,5.2586,5.2571,5.2535,5.2497,5.2476,5.2428,5.2386,5.2379,5.2343,5.2354,5.2343,5.2311,5.2272,5.232,5.2331,5.2336,5.226,5.2259,5.2258,5.2257,0,0,5.2842,5.2762,5.2764,5.274,5.2681,5.2664,5.2651,5.2613,5.2601,5.2563,5.255,5.2511,5.2481,5.2455,5.2414,5.2411,5.2447,5.2379,5.2377,5.2393,5.2456,5.2481,5.2488,5.2421,5.2421,5.2422,5.246,0,5.2885,5.2861,5.2811,5.2802,5.2783,5.2724,5.2712,5.2675,5.2638,5.2616,5.2574,5.2548,5.2511,5.2494,5.2489,5.2444,5.2459,5.2441,5.2406,5.2406,5.2421,5.2493,5.2519,5.2558,5.2464,5.2465,5.2465,0,5.2932,5.2901,5.289,5.2833,5.2823,5.2815,5.2776,5.2755,5.2711,5.2684,5.2656,5.2612,5.2594,5.256,5.2533,5.2522,5.2505,5.2481,5.2481,5.2475,5.2438,5.2489,5.2569,5.2575,5.2472,5.2471,5.2471,0,5.3005,5.296,5.2948,5.2929,5.2863,5.2858,5.2829,5.2784,5.2764,5.2729,5.2716,5.2679,5.2659,5.2631,5.2578,5.2558,5.2557,5.2518,5.2534,5.2535,5.2536,5.2536,5.2613,5.2526,5.2526,5.2525,5.2525,0,5.3058,5.3054,5.298,5.2973,5.2966,5.2909,5.2903,5.2869,5.2829,5.2813,5.2758,5.2744,5.2675,5.2652,5.261,5.2595,5.2586,5.2563,5.2552,5.2568,5.2571,5.2555,5.2551,5.2527,5.2527,5.2526,5.2526,0,5.3139,5.3089,5.3072,5.3011,5.2996,5.2994,5.2941,5.293,5.2892,5.2872,5.2864,5.2802,5.2772,5.2717,5.2671,5.2643,5.2636,5.2617,5.2652,5.2645,5.2664,5.2663,5.2733,5.274,5.2649,5.265,5.2651,0,5.3176,5.3171,5.3111,5.3097,5.3072,5.305,5.3031,5.2974,5.2955,5.2905,5.29,5.2867,5.2837,5.2793,5.2742,5.2707,5.2686,5.2714,5.268,5.2697,5.2686,5.2687,5.2686,5.2721,5.2722,5.2723,5.2724,0,5.3247,5.3223,5.3198,5.3164,5.3143,5.3113,5.308,5.3072,5.3007,5.2989,5.2959,5.2936,5.2891,5.2858,5.2816,5.2784,5.2743,5.2735,5.2737,5.2753,5.2773,5.2762,5.2672,5.2733,5.2733,5.2732,5.2731,5.2731,5.3306,5.33,5.3257,5.323,5.3201,5.3172,5.3159,5.312,5.3095,5.3055,5.3022,5.2995,5.295,5.2889,5.2861,5.2838,5.2818,5.2821,5.2821,5.2823,5.2829,5.2778,5.283,5.2829,5.2829,5.2829,5.2828,0,5.3374,5.3344,5.3321,5.3278,5.3257,5.3223,5.3185,5.3169,5.3147,5.3109,5.3082,5.3048,5.3016,5.2964,5.2928,5.2919,5.29,5.2912,5.2911,5.2905,5.2849,5.2851,5.2928,5.2928,5.2928,5.2928,5.2928,5.2928,5.3407,5.3395,5.3366,5.3338,5.3307,5.3282,5.3263,5.3236,5.3206,5.3171,5.3145,5.3113,5.3069,5.3029,5.2998,5.2983,5.2972,5.299,5.297,5.2918,5.2909,5.29,5.2902,5.2989,5.2989,5.3028,5.3028,5.3028]}]]